FW3572 Weather Reports


Display with metric or nautical units.
time (UTC)temp
F
wind
direction
speed
MPH
gust
MPH
rain 1hr
in
rain 24hr
in
rain mn
in
humidity
%
barometer
mb
20260507003535 79 120 4.0 8.0 0.00 0.00 0.00 100 1017.7
20260507003035 79 159 3.0 9.0 0.00 0.00 0.00 100 1017.7
20260507002534 79 130 3.0 9.0 0.00 0.00 0.00 100 1017.6
20260507002034 79 136 4.0 9.0 0.00 0.00 0.00 100 1017.6
20260507001549 79 167 4.0 9.0 0.00 0.00 0.00 100 1017.7
20260507001038 79 140 4.0 11.0 0.00 0.00 0.00 100 1017.7
20260507000533 79 159 5.0 11.0 0.00 0.00 0.00 100 1017.6
20260507000033 79 124 3.0 9.0 0.00 0.00 0.00 100 1017.5
20260506235534 79 135 4.0 10.0 0.00 0.00 0.00 100 1017.6
20260506235036 79 150 5.0 13.0 0.00 0.00 0.00 100 1017.6
20260506234546 79 141 5.0 10.0 0.00 0.00 0.00 100 1017.5
20260506234033 80 128 4.0 10.0 0.00 0.00 0.00 100 1017.7
20260506233533 80 109 4.0 10.0 0.00 0.00 0.00 100 1017.6
20260506233032 80 156 5.0 10.0 0.00 0.00 0.00 100 1017.7
20260506232533 80 139 4.0 10.0 0.00 0.00 0.00 100 1017.6
20260506232048 80 159 5.0 10.0 0.00 0.00 0.00 100 1017.7
20260506231534 80 134 6.0 11.0 0.00 0.00 0.00 100 1017.7
20260506231029 81 116 4.0 11.0 0.00 0.00 0.00 100 1017.8
20260506230532 81 111 3.0 10.0 0.00 0.00 0.00 100 1017.8
20260506230028 81 134 4.0 12.0 0.00 0.00 0.00 100 1017.7
20260506225531 81 150 5.0 11.0 0.00 0.00 0.00 100 1017.7
20260506225028 81 116 3.0 10.0 0.00 0.00 0.00 100 1017.7
20260506224530 81 138 3.0 12.0 0.00 0.00 0.00 100 1017.6
20260506224028 81 159 5.0 13.0 0.00 0.00 0.00 100 1017.5
20260506223527 81 117 6.0 13.0 0.00 0.00 0.00 100 1017.6
20260506223029 81 150 6.0 12.0 0.00 0.00 0.00 100 1017.5
20260506222527 81 131 3.0 13.0 0.00 0.00 0.00 100 1017.6
20260506222026 81 132 7.0 13.0 0.00 0.00 0.00 100 1017.6
20260506221526 81 119 5.0 14.0 0.00 0.00 0.00 100 1017.7
20260506221026 81 178 7.0 14.0 0.00 0.00 0.00 100 1017.5
20260506220526 81 128 4.0 15.0 0.00 0.00 0.00 100 1017.6
20260506220035 82 154 7.0 15.0 0.00 0.00 0.00 100 1017.6
20260506215526 82 160 4.0 11.0 0.00 0.00 0.00 100 1017.7
20260506215026 82 148 4.0 11.0 0.00 0.00 0.00 100 1017.7
20260506214527 82 136 4.0 9.0 0.00 0.00 0.00 100 1017.6
20260506214028 82 155 4.0 9.0 0.00 0.00 0.00 100 1017.7
20260506213525 82 99 4.0 11.0 0.00 0.00 0.00 100 1017.7
20260506213024 82 113 5.0 12.0 0.00 0.00 0.00 100 1017.6
20260506212527 82 103 6.0 12.0 0.00 0.00 0.00 100 1017.7
20260506212024 82 109 5.0 12.0 0.00 0.00 0.00 100 1017.7
20260506211524 82 144 5.0 11.0 0.00 0.00 0.00 100 1017.7
20260506211024 82 116 4.0 11.0 0.00 0.00 0.00 100 1017.7
20260506210524 83 167 6.0 12.0 0.00 0.00 0.00 100 1017.7
20260506210023 82 153 5.0 12.0 0.00 0.00 0.00 100 1017.8
20260506205523 82 138 4.0 11.0 0.00 0.00 0.00 100 1017.8
20260506205023 83 128 4.0 9.0 0.00 0.00 0.00 100 1017.8
20260506204523 83 147 4.0 12.0 0.00 0.00 0.00 100 1017.7
20260506204023 82 134 5.0 12.0 0.00 0.00 0.00 100 1017.7
20260506203524 82 158 5.0 11.0 0.00 0.00 0.00 100 1017.7
20260506203025 83 154 3.0 13.0 0.00 0.00 0.00 100 1017.7
20260506202523 82 124 7.0 13.0 0.00 0.00 0.00 100 1017.8
20260506202025 83 107 3.0 9.0 0.00 0.00 0.00 100 1017.7
20260506201522 83 150 4.0 12.0 0.00 0.00 0.00 100 1017.8
20260506201022 82 102 5.0 14.0 0.00 0.00 0.00 100 1017.9
20260506200521 83 111 5.0 14.0 0.00 0.00 0.00 100 1017.9
20260506200021 83 126 4.0 16.0 0.00 0.00 0.00 100 1017.9
20260506195522 82 113 8.0 17.0 0.00 0.00 0.00 100 1017.9
20260506195021 82 131 8.0 13.0 0.00 0.00 0.00 100 1017.9
20260506194531 83 146 5.0 13.0 0.00 0.00 0.00 100 1017.9
20260506194023 83 150 6.0 13.0 0.00 0.00 0.00 100 1018.0
20260506193522 83 145 8.0 13.0 0.00 0.00 0.00 100 1017.9
20260506193020 84 154 4.0 10.0 0.00 0.00 0.00 100 1017.9
20260506192520 83 115 5.0 11.0 0.00 0.00 0.00 100 1017.9
20260506192020 83 162 5.0 12.0 0.00 0.00 0.00 100 1018.1
20260506191520 83 112 5.0 11.0 0.00 0.00 0.00 100 1018.1
20260506191020 83 144 5.0 11.0 0.00 0.00 0.00 100 1018.2
20260506190542 83 104 4.0 12.0 0.00 0.00 0.00 100 1018.3
20260506190020 83 142 4.0 12.0 0.00 0.00 0.00 100 1018.3
20260506185519 83 169 5.0 11.0 0.00 0.00 0.00 100 1018.3
20260506185019 83 154 4.0 12.0 0.00 0.00 0.00 100 1018.4
20260506184527 83 96 3.0 12.0 0.00 0.00 0.00 100 1018.4
20260506184019 83 157 7.0 12.0 0.00 0.00 0.00 100 1018.5
20260506183519 83 191 5.0 11.0 0.00 0.00 0.00 100 1018.6
20260506183019 83 149 5.0 11.0 0.00 0.00 0.00 100 1018.6
20260506182518 84 106 5.0 11.0 0.00 0.00 0.00 100 1018.7
20260506182021 83 106 4.0 10.0 0.00 0.00 0.00 100 1018.6
20260506181517 83 121 4.0 10.0 0.00 0.00 0.00 100 1018.6
20260506181017 83 166 6.0 11.0 0.00 0.00 0.00 100 1018.7
20260506180517 83 168 7.0 11.0 0.00 0.00 0.00 100 1018.8
20260506180017 84 133 3.0 8.0 0.00 0.00 0.00 100 1018.7
20260506175518 83 84 2.0 10.0 0.00 0.00 0.00 100 1018.8
20260506175019 83 162 4.0 10.0 0.00 0.00 0.00 100 1018.7
20260506174515 83 109 2.0 10.0 0.00 0.00 0.00 100 1018.8
20260506174016 83 117 5.0 10.0 0.00 0.00 0.00 100 1018.9
20260506173516 83 171 4.0 9.0 0.00 0.00 0.00 100 1018.8
20260506173020 82 125 4.0 11.0 0.00 0.00 0.00 100 1018.8
20260506172515 82 132 7.0 11.0 0.00 0.00 0.00 100 1018.8
20260506172014 82 163 6.0 11.0 0.00 0.00 0.00 100 1018.8
20260506171518 82 74 5.0 10.0 0.00 0.00 0.00 100 1018.9
20260506171013 82 162 5.0 10.0 0.00 0.00 0.00 100 1018.9
20260506170514 82 146 4.0 11.0 0.00 0.00 0.00 100 1018.9
20260506170016 82 159 5.0 11.0 0.00 0.00 0.00 100 1019.0
20260506165513 83 126 5.0 10.0 0.00 0.00 0.00 100 1019.0
20260506165013 82 192 4.0 11.0 0.00 0.00 0.00 100 1018.9
20260506164515 82 149 6.0 10.0 0.00 0.00 0.00 100 1019.0
20260506164012 82 150 5.0 9.0 0.00 0.00 0.00 100 1019.0
20260506163512 82 110 4.0 11.0 0.00 0.00 0.00 100 1019.0
20260506163012 81 117 6.0 11.0 0.00 0.00 0.00 100 1019.0
20260506162511 82 132 4.0 9.0 0.00 0.00 0.00 100 1019.1
20260506162012 82 86 5.0 13.0 0.00 0.00 0.00 100 1019.1
20260506161512 82 155 3.0 13.0 0.00 0.00 0.00 100 1019.1
20260506161010 82 119 2.0 11.0 0.00 0.00 0.00 100 1019.2
20260506160516 81 169 6.0 11.0 0.00 0.00 0.00 100 1019.2
20260506160013 81 118 3.0 12.0 0.00 0.00 0.00 100 1019.3
20260506155509 81 112 4.0 11.0 0.00 0.00 0.00 100 1019.4
20260506155009 81 115 4.0 11.0 0.00 0.00 0.00 100 1019.4
20260506154515 81 124 4.0 11.0 0.00 0.00 0.00 100 1019.3
20260506154008 80 134 5.0 11.0 0.00 0.00 0.00 100 1019.4
20260506153508 80 138 7.0 12.0 0.00 0.00 0.00 100 1019.3
20260506153007 80 159 5.0 12.0 0.00 0.00 0.00 100 1019.3
20260506152509 80 156 4.0 11.0 0.00 0.00 0.00 100 1019.3
20260506152009 80 150 7.0 11.0 0.00 0.00 0.00 100 1019.2
20260506151507 80 158 3.0 11.0 0.00 0.00 0.00 100 1019.3
20260506151006 80 117 5.0 11.0 0.00 0.00 0.00 100 1019.2
20260506150506 80 147 4.0 11.0 0.00 0.00 0.00 100 1019.2
20260506150006 79 132 3.0 11.0 0.00 0.00 0.00 100 1019.2
20260506145505 79 160 5.0 11.0 0.00 0.00 0.00 100 1019.2
20260506145005 79 120 6.0 11.0 0.00 0.00 0.00 100 1019.1
20260506144504 80 146 4.0 10.0 0.00 0.00 0.00 100 1019.1
20260506144008 79 139 5.0 10.0 0.00 0.00 0.00 100 1019.0
20260506143503 80 183 3.0 8.0 0.00 0.00 0.00 100 1019.0
20260506143002 80 139 2.0 8.0 0.00 0.00 0.00 100 1018.9
20260506142504 79 117 2.0 9.0 0.00 0.00 0.00 100 1018.9
20260506142004 79 166 6.0 10.0 0.00 0.00 0.00 100 1019.0
20260506141600 78 192 5.0 10.0 0.00 0.00 0.00 100 1019.0
20260506141102 79 171 5.0 10.0 0.00 0.00 0.00 100 1018.9
20260506140600 79 120 3.0 9.0 0.00 0.00 0.00 100 1018.9
20260506140100 78 144 4.0 9.0 0.00 0.00 0.00 100 1019.0
20260506135559 78 163 5.0 8.0 0.00 0.00 0.00 100 1018.9
20260506135059 79 110 2.0 7.0 0.00 0.00 0.00 100 1018.9
20260506134600 79 144 3.0 7.0 0.00 0.00 0.00 100 1018.9
20260506134057 78 125 2.0 7.0 0.00 0.00 0.00 100 1018.8
20260506133557 78 159 2.0 8.0 0.00 0.00 0.00 100 1018.6
20260506133111 78 136 4.0 10.0 0.00 0.00 0.00 100 1018.6
20260506132556 78 123 3.0 8.0 0.00 0.00 0.00 100 1018.7
20260506132056 78 126 3.0 9.0 0.00 0.00 0.00 100 1018.7
20260506131602 78 142 5.0 9.0 0.00 0.00 0.00 100 1018.6
20260506131056 78 142 3.0 7.0 0.00 0.00 0.00 100 1018.6
20260506130554 78 164 4.0 8.0 0.00 0.00 0.00 100 1018.6
20260506130056 77 153 4.0 9.0 0.00 0.00 0.00 100 1018.6
20260506125552 77 153 5.0 9.0 0.00 0.00 0.00 100 1018.6
20260506125052 78 108 2.0 9.0 0.00 0.00 0.00 100 1018.5
20260506124557 77 157 2.0 9.0 0.00 0.00 0.00 100 1018.5
20260506124053 77 153 4.0 10.0 0.00 0.00 0.00 100 1018.5
20260506123550 77 158 5.0 10.0 0.00 0.00 0.00 100 1018.5
20260506123051 77 159 3.0 8.0 0.00 0.00 0.00 100 1018.5
20260506122549 77 162 1.0 7.0 0.00 0.00 0.00 100 1018.5
20260506122047 76 155 2.0 8.0 0.00 0.00 0.00 100 1018.4
20260506121547 76 122 1.0 8.0 0.00 0.00 0.00 100 1018.2
20260506121047 76 159 3.0 7.0 0.00 0.00 0.00 100 1018.2
20260506120549 76 129 1.0 4.0 0.00 0.00 0.00 100 1018.3
20260506120047 75 122 0.0 4.0 0.00 0.00 0.00 100 1018.3
20260506115546 75 121 0.0 0.0 0.00 0.00 0.00 100 1018.3
20260506115046 74 121 0.0 0.0 0.00 0.00 0.00 100 1018.3
20260506114546 74 121 0.0 0.0 0.00 0.00 0.00 100 1018.3
20260506114047 73 121 0.0 0.0 0.00 0.00 0.00 100 1018.3
20260506113545 73 121 0.0 0.0 0.00 0.00 0.00 100 1018.3
20260506113045 73 121 0.0 0.0 0.00 0.00 0.00 100 1018.4
20260506112548 73 121 0.0 0.0 0.00 0.00 0.00 100 1018.4
20260506112044 73 121 0.0 0.0 0.00 0.00 0.00 100 1018.3
20260506111544 73 121 0.0 0.0 0.00 0.00 0.00 100 1018.2
20260506111044 73 121 0.0 0.0 0.00 0.00 0.00 100 1018.1
20260506110544 73 121 0.0 0.0 0.00 0.00 0.00 100 1018.1
20260506110044 73 121 0.0 0.0 0.00 0.00 0.00 100 1018.1
20260506105546 73 121 0.0 0.0 0.00 0.00 0.00 100 1018.0
20260506105046 73 121 0.0 0.0 0.00 0.00 0.00 100 1017.8
20260506104549 73 121 0.0 0.0 0.00 0.00 0.00 100 1017.7
20260506104043 73 121 0.0 0.0 0.00 0.00 0.00 100 1017.6
20260506103542 73 121 0.0 0.0 0.00 0.00 0.00 100 1017.6
20260506103042 73 121 0.0 0.0 0.00 0.00 0.00 100 1017.6
20260506102541 74 121 0.0 0.0 0.00 0.00 0.00 100 1017.6
20260506102041 74 121 0.0 0.0 0.00 0.00 0.00 100 1017.6
20260506101541 74 121 0.0 0.0 0.00 0.00 0.00 100 1017.5
20260506101040 74 121 0.0 0.0 0.00 0.00 0.00 100 1017.4
20260506100540 74 121 0.0 0.0 0.00 0.00 0.00 100 1017.4
20260506100040 74 121 0.0 0.0 0.00 0.00 0.00 100 1017.4
20260506095542 74 121 0.0 0.0 0.00 0.00 0.00 100 1017.4
20260506095042 74 121 0.0 0.0 0.00 0.00 0.00 100 1017.3
20260506094549 74 121 0.0 0.0 0.00 0.00 0.00 100 1017.4
20260506094041 74 121 0.0 0.0 0.00 0.00 0.00 100 1017.4
20260506093540 74 121 0.0 0.0 0.00 0.00 0.00 100 1017.5
20260506093040 74 121 0.0 0.0 0.00 0.00 0.00 100 1017.4
20260506092538 74 121 0.0 0.0 0.00 0.00 0.00 100 1017.4
20260506092038 74 121 0.0 0.0 0.00 0.00 0.00 100 1017.3
20260506091538 74 121 0.0 0.0 0.00 0.00 0.00 100 1017.2
20260506091039 74 121 0.0 0.0 0.00 0.00 0.00 100 1017.2
20260506090537 74 121 0.0 0.0 0.00 0.00 0.00 100 1017.2
20260506090037 74 120 0.0 0.0 0.00 0.00 0.00 100 1017.1
20260506085537 74 121 0.0 0.0 0.00 0.00 0.00 100 1017.1
20260506085037 74 120 0.0 0.0 0.00 0.00 0.00 100 1017.1
20260506084542 74 126 0.0 0.0 0.00 0.00 0.00 100 1017.1
20260506084039 74 126 0.0 0.0 0.00 0.00 0.00 100 1017.3
20260506083538 74 127 0.0 0.0 0.00 0.00 0.00 100 1017.2
20260506083035 74 125 0.0 0.0 0.00 0.00 0.00 100 1017.3
20260506082535 74 125 0.0 0.0 0.00 0.00 0.00 100 1017.3
20260506082035 74 125 0.0 0.0 0.00 0.00 0.00 100 1017.3
20260506081534 74 126 0.0 0.0 0.00 0.00 0.00 100 1017.3
20260506081034 75 126 0.0 3.0 0.00 0.00 0.00 100 1017.3
20260506080534 75 126 1.0 3.0 0.00 0.00 0.00 100 1017.3
20260506073031 75 111 1.0 6.0 0.00 0.00 0.00 100 1017.4
20260506072534 75 123 1.0 6.0 0.00 0.00 0.00 100 1017.5
20260506072030 75 141 2.0 5.0 0.00 0.00 0.00 100 1017.5
20260506071534 75 117 2.0 7.0 0.00 0.00 0.00 100 1017.4
20260506071030 75 116 2.0 7.0 0.00 0.00 0.00 100 1017.5
20260506070530 75 132 1.0 4.0 0.00 0.00 0.00 100 1017.4
20260506062027 75 114 2.0 6.0 0.00 0.00 0.00 100 1017.6
20260506061527 75 121 2.0 5.0 0.00 0.00 0.00 100 1017.6
20260506061029 75 128 1.0 5.0 0.00 0.00 0.00 100 1017.7
20260506060529 75 134 0.0 9.0 0.00 0.00 0.00 100 1017.6
20260506051020 76 114 4.0 11.0 0.00 0.00 0.00 100 1017.9
20260506050520 76 116 4.0 11.0 0.00 0.00 0.00 100 1017.9
20260506045019 76 177 2.0 7.0 0.00 0.00 0.00 100 1018.0
20260506044518 76 136 3.0 9.0 0.00 0.00 0.00 100 1018.0
20260506044017 76 152 3.0 9.0 0.00 0.00 0.00 100 1017.9
20260506043517 76 107 2.0 11.0 0.00 0.00 0.00 100 1018.0
20260506043016 76 130 3.0 11.0 0.00 0.00 0.00 100 1017.9
20260506042516 76 111 3.0 8.0 0.00 0.00 0.00 100 1018.0
20260506042016 76 119 1.0 11.0 0.00 0.00 0.00 100 1018.2
20260506041516 76 121 4.0 11.0 0.00 0.00 0.00 100 1018.1
20260506041014 76 112 2.0 8.0 0.00 0.00 0.00 100 1018.2
20260506040513 76 108 2.0 9.0 0.00 0.00 0.00 100 1018.3
20260506040013 76 122 3.0 9.0 0.00 0.00 0.00 100 1018.2
20260506035518 76 80 3.0 9.0 0.00 0.00 0.00 100 1018.3
20260506035012 76 116 2.0 9.0 0.00 0.00 0.00 100 1018.3
20260506034512 76 105 3.0 8.0 0.00 0.00 0.00 100 1018.4
20260506034011 76 84 3.0 8.0 0.00 0.00 0.00 100 1018.5
20260506033510 76 112 2.0 8.0 0.00 0.00 0.00 100 1018.4
20260506033012 76 104 2.0 8.0 0.00 0.00 0.00 100 1018.3
20260506032510 76 114 3.0 7.0 0.00 0.00 0.00 100 1018.3
20260506032012 76 110 3.0 8.0 0.00 0.00 0.00 100 1018.3
20260506031511 76 108 3.0 8.0 0.00 0.00 0.00 100 1018.4
20260506031012 76 131 2.0 8.0 0.00 0.00 0.00 100 1018.3
20260506030511 76 157 2.0 9.0 0.00 0.00 0.00 100 1018.3
20260506030019 76 96 3.0 10.0 0.00 0.00 0.00 100 1018.3
20260506025509 76 123 4.0 10.0 0.00 0.00 0.00 100 1018.2
20260506025009 76 101 2.0 7.0 0.00 0.00 0.00 100 1018.2
20260506024522 76 115 2.0 9.0 0.00 0.00 0.00 100 1018.1
20260506024009 76 109 4.0 10.0 0.00 0.00 0.00 100 1018.1
20260506023509 76 127 3.0 10.0 0.00 0.00 0.00 100 1018.0
20260506023009 76 92 3.0 8.0 0.00 0.00 0.00 100 1018.0
20260506022508 76 103 2.0 8.0 0.00 0.00 0.00 100 1018.1
20260506022008 76 99 3.0 8.0 0.00 0.00 0.00 100 1018.1
20260506021508 76 112 2.0 10.0 0.00 0.00 0.00 100 1018.0
20260506021009 77 84 3.0 10.0 0.00 0.00 0.00 100 1018.1
20260506020508 76 88 1.0 7.0 0.00 0.00 0.00 100 1017.9
20260506020009 77 149 2.0 7.0 0.00 0.00 0.00 100 1017.9
20260506015507 77 137 2.0 8.0 0.00 0.00 0.00 100 1017.8
20260506015008 77 128 2.0 8.0 0.00 0.00 0.00 100 1017.8
20260506014507 76 96 3.0 8.0 0.00 0.00 0.00 100 1017.7
20260506014007 77 153 2.0 10.0 0.00 0.00 0.00 100 1017.7
20260506013506 77 110 3.0 10.0 0.00 0.00 0.00 100 1017.6
20260506013008 77 103 2.0 7.0 0.00 0.00 0.00 100 1017.5
20260506012506 77 140 2.0 7.0 0.00 0.00 0.00 100 1017.5
20260506012006 77 54 2.0 6.0 0.00 0.00 0.00 100 1017.4
20260506011506 77 130 2.0 6.0 0.00 0.00 0.00 100 1017.3
20260506011007 77 103 2.0 7.0 0.00 0.00 0.00 100 1017.3
20260506010506 77 113 2.0 7.0 0.00 0.00 0.00 100 1017.2
20260506010006 77 102 2.0 9.0 0.00 0.00 0.00 100 1017.2
20260506005608 77 128 2.0 9.0 0.00 0.00 0.00 100 1017.1
20260506005006 77 90 3.0 8.0 0.00 0.00 0.00 100 1017.1
20260506004505 77 93 2.0 7.0 0.00 0.00 0.00 100 1017.1